This is the latest recevied weather packets stored in our database for station/object XW7RMR. If no packets are shown the sender has not sent any weather packets the latest 1 day(s).
| Time | Temp. | Humidity | Pressure | Rain* | Wind** | Luminosity | Snow |
|---|---|---|---|---|---|---|---|
| 1777996933 | 12.78° C | 85% | 1015.3 hPa | 0 mm | 0 m/s | 173 W/m² | - |
| 1777996629 | 13.33° C | 84% | 1015.2 hPa | 0 mm | 0 m/s | 177 W/m² | - |
| 1777996325 | 13.33° C | 84% | 1015.2 hPa | 0 mm | 0 m/s | 188 W/m² | - |
| 1777996021 | 13.33° C | 84% | 1015.1 hPa | 0 mm | 0 m/s | 182 W/m² | - |
| 1777995718 | 13.33° C | 84% | 1015 hPa | 0 mm | 0.89 m/s, 153° | 238 W/m² | - |
| 1777995414 | 13.33° C | 84% | 1015.1 hPa | 0 mm | 0 m/s | 225 W/m² | - |
| 1777995112 | 12.78° C | 86% | 1015.1 hPa | 0 mm | 0.45 m/s, 100° | 202 W/m² | - |
| 1777994809 | 12.78° C | 88% | 1014.9 hPa | 0 mm | 0 m/s | 185 W/m² | - |
| 1777994504 | 12.22° C | 89% | 1015.1 hPa | 0 mm | 0 m/s | 161 W/m² | - |
| 1777994200 | 12.22° C | 89% | 1015 hPa | 0 mm | 1.34 m/s, 187° | 147 W/m² | - |
| 1777993897 | 12.22° C | 90% | 1015 hPa | 0 mm | 0 m/s | 128 W/m² | - |
| 1777993593 | 11.67° C | 90% | 1014.8 hPa | 0 mm | 0.89 m/s, 137° | 122 W/m² | - |
| 1777993291 | 11.67° C | 90% | 1014.8 hPa | 0 mm | 0.89 m/s, 192° | 103 W/m² | - |
| 1777992986 | 11.67° C | 91% | 1015 hPa | 0 mm | 0 m/s | 91 W/m² | - |
| 1777992685 | 11.67° C | 91% | 1014.9 hPa | 0 mm | 0 m/s | 84 W/m² | - |
| 1777992382 | 11.67° C | 91% | 1014.9 hPa | 0 mm | 0.89 m/s, 142° | 82 W/m² | - |
| 1777992080 | 11.67° C | 91% | 1014.8 hPa | 0 mm | 0.45 m/s, 128° | 68 W/m² | - |
| 1777991777 | 11.67° C | 91% | 1014.7 hPa | 0 mm | 0 m/s | 75 W/m² | - |
| 1777991474 | 11.67° C | 91% | 1014.7 hPa | 0 mm | 0.45 m/s, 104° | 73 W/m² | - |
| 1777991171 | 11.67° C | 91% | 1014.7 hPa | 0 mm | 0 m/s | 62 W/m² | - |
| 1777990868 | 11.67° C | 90% | 1014.5 hPa | 0 mm | 0.89 m/s, 184° | 50 W/m² | - |
| 1777990566 | 11.67° C | 91% | 1014.6 hPa | 0 mm | 0 m/s | 45 W/m² | - |
| 1777990262 | 11.67° C | 92% | 1014.5 hPa | 0 mm | 0 m/s | 44 W/m² | - |
| 1777989959 | 11.67° C | 91% | 1014.5 hPa | 0 mm | 0.45 m/s, 153° | 35 W/m² | - |
| 1777989656 | 11.67° C | 91% | 1014.5 hPa | 0 mm | 0.45 m/s, 126° | 33 W/m² | - |
* Rain latest hour (hover to see other rain measurements)
** Current wind speed in m/s (hover to see current wind gust speed)